[[{"header":{"parameterUnit":"m.s-1","parameterCategory":1,"la1":30.2991,"la2":30.254,"lo1":-89.0895,"lo2":-89.0444,"dy":0.0017,"dx":0.0017,"nx":28,"ny":28,"refTime":"2024-08-15T21:00:00:Z","depth":0,"parameterNumber":2,"parameterNumberName":"U-component_of_WINDS"},"data":[0,0,0,0,0,0,0,0,0,0,0,0,0,0,0,0,0,0,0,0,0,0,0,0,0,0,0,0,0,0,0,0,0,0,0,0,0,0,0,0,0,0,0,0,0,0,0,0,0,0,0,0,0,0,0,0,0,0,0.6564,0.6563,0,0.6476,0.6475,0.6474,0.64,0.6399,0.6398,0.6397,0.6306,0.6304,0.6303,0,0,0,0,0,0,0,0,0,0,0,0,0,0.6666,0.6664,0.6564,0.6563,0.6562,0.6476,0.6475,0.6474,0.64,0.6399,0.6398,0.6397,0.6306,0.6304,0.6302,0,0,0,0,0,0,0,0,0,0,0,0,0,0.6604,0.6664,0.6565,0.6515,0.651,0.6477,0.6475,0.6474,0.64,0.6399,0.6398,0.6396,0.6307,0.6305,0.6302,0.6311,0,0,0.6295,0.6293,0,0,0,0,0,0,0,0,0.6608,0.6601,0.6523,0.6518,0.6512,0.6448,0.6477,0.6419,0.64,0.6442,0.6397,0.6396,0.6354,0.6348,0.6334,0.6307,0.6303,0.6294,0.6293,0.6292,0.6291,0,0,0,0,0,0,0,0.6612,0.6604,0.6529,0.6522,0.6515,0.6496,0.6486,0.6466,0.6406,0.6438,0.6432,0.6423,0.6351,0.6336,0.6331,0.6302,0.6294,0.6292,0.6291,0.629,0.6274,0.6275,0,0,0,0,0,0,0.6624,0.6608,0.6532,0.6527,0.6558,0.6495,0.6484,0.647,0.6406,0.6395,0.6424,0.642,0.6341,0.6334,0.6328,0.6331,0.6292,0.6289,0.6288,0.6273,0.6275,0.6276,0,0,0,0,0,0,0.6627,0.6618,0.6536,0.6566,0.6554,0.6495,0.6479,0.6469,0.6454,0.6395,0.6384,0.6421,0.634,0.6331,0.6315,0.6327,0.6288,0.6286,0.6272,0.6274,0.6275,0.6341,0,0,0,0,0,0,0.663,0.662,0.6623,0.6566,0.6553,0.6526,0.648,0.6468,0.645,0.6444,0.6389,0.6379,0.6338,0.6319,0.6313,0.6323,0.6284,0.6271,0.6273,0.6275,0.6337,0.6344,0.6351,0,0,0,0,0,0.6634,0.6646,0.6624,0.6615,0.6556,0.6527,0.6519,0.6472,0.6451,0.6454,0.6415,0.638,0.6327,0.6318,0.631,0.632,0.627,0.6272,0.6275,0.6334,0.6343,0.635,0,0,0,0,0,0,0.6705,0.6637,0.6612,0.6606,0.6573,0.6514,0.6516,0.6484,0.6455,0.645,0.6394,0.6382,0.6372,0.6344,0.6336,0.6324,0.6294,0.6295,0.6342,0.635,0.6356,0.6362,0.6282,0,0,0,0,0,0.672,0.6703,0.6645,0.6645,0.6629,0.6576,0.6561,0.6528,0.6491,0.6477,0.6438,0.6403,0.6377,0.6362,0.6336,0.6333,0.6319,0.6336,0.6343,0.6348,0.6349,0.6343,0.6349,0.6284,0.6284,0.6284,0,0,0.6751,0.6712,0.6705,0.6658,0.6628,0.661,0.6564,0.6548,0.6534,0.6474,0.6456,0.6426,0.6383,0.6373,0.6367,0.635,0.6364,0.6352,0.6357,0.6354,0.6346,0.6352,0.6357,0.6286,0.6285,0.6285,0,0,0.6798,0.6767,0.6763,0.6734,0.6689,0.6653,0.6652,0.6598,0.6576,0.6557,0.6511,0.6493,0.6452,0.6422,0.6402,0.6436,0.6401,0.6429,0.6463,0.6457,0.6462,0.6466,0.6476,0.648,0.643,0.6431,0.6431,0,0.6841,0.6813,0.6764,0.675,0.673,0.6675,0.6669,0.6643,0.6593,0.6579,0.6562,0.6507,0.6475,0.6455,0.6463,0.645,0.6445,0.6434,0.6466,0.6469,0.6473,0.6481,0.6485,0.6434,0.6434,0.6433,0.6433,0,0.6867,0.6849,0.685,0.6802,0.6782,0.6772,0.6721,0.6706,0.6675,0.6641,0.6621,0.658,0.6543,0.6536,0.6506,0.6512,0.6503,0.6477,0.6445,0.6483,0.6489,0.6493,0.6439,0.6438,0.6437,0.6436,0,0,0.6956,0.688,0.6881,0.6858,0.6804,0.6788,0.6775,0.6739,0.6726,0.6693,0.6679,0.6645,0.6619,0.6596,0.6562,0.6557,0.6583,0.6531,0.6529,0.654,0.6584,0.6603,0.6607,0.6561,0.6561,0.6562,0.6587,0,0.6992,0.6965,0.692,0.6907,0.6888,0.6835,0.6823,0.6788,0.6756,0.6733,0.6697,0.6673,0.6642,0.6628,0.6621,0.6582,0.6591,0.6579,0.6545,0.6544,0.6555,0.6611,0.6631,0.6657,0.6589,0.659,0.659,0,0.703,0.6999,0.6984,0.693,0.692,0.691,0.6872,0.6853,0.6811,0.6787,0.6761,0.6723,0.6705,0.6677,0.665,0.6643,0.6626,0.6605,0.6605,0.6598,0.6568,0.6603,0.6664,0.6667,0.6594,0.6594,0.6594,0,0.7092,0.7047,0.7032,0.7013,0.6951,0.6944,0.6918,0.6875,0.6856,0.6823,0.6809,0.6775,0.6756,0.6729,0.6682,0.6667,0.6659,0.6628,0.6637,0.6638,0.6636,0.6636,0.6692,0.663,0.6629,0.6629,0.6629,0,0.7135,0.7128,0.7058,0.7049,0.7038,0.6986,0.6977,0.6945,0.6908,0.689,0.6843,0.6827,0.6767,0.6744,0.6707,0.6688,0.6681,0.666,0.6649,0.6662,0.6665,0.6649,0.6645,0.663,0.663,0.663,0.663,0,0.7203,0.7156,0.7136,0.7077,0.7062,0.7057,0.7006,0.6994,0.6959,0.6937,0.6928,0.6872,0.6842,0.6793,0.6749,0.6724,0.6711,0.6696,0.6725,0.6718,0.6729,0.6728,0.6775,0.6777,0.6716,0.6717,0.6717,0,0.7232,0.7225,0.7165,0.715,0.7125,0.7102,0.7081,0.703,0.701,0.6961,0.6955,0.6921,0.6891,0.6845,0.68,0.6765,0.6747,0.6766,0.6741,0.6754,0.6744,0.6744,0.6742,0.6771,0.6772,0.6773,0.6773,0,0.7288,0.7265,0.7238,0.7203,0.718,0.7149,0.7116,0.7106,0.7047,0.7027,0.6996,0.6973,0.6927,0.6893,0.6852,0.6823,0.6787,0.6782,0.6781,0.6793,0.6809,0.6798,0.6738,0.678,0.678,0.6779,0.6779,0.6779,0.7335,0.7325,0.7282,0.7252,0.7222,0.7192,0.7177,0.714,0.7113,0.7071,0.7042,0.7012,0.6969,0.691,0.6883,0.6857,0.6842,0.6842,0.6842,0.6842,0.6846,0.6816,0.685,0.685,0.6849,0.6849,0.6849,0,0.7387,0.7356,0.733,0.7285,0.7261,0.7231,0.7192,0.7174,0.7149,0.7112,0.7083,0.7045,0.7012,0.6964,0.6926,0.6915,0.6898,0.6907,0.6906,0.6899,0.6863,0.6866,0.6921,0.6921,0.6921,0.6921,0.6921,0.6921,0.7411,0.7391,0.7363,0.7328,0.7297,0.7267,0.7247,0.7219,0.7188,0.7149,0.7121,0.709,0.7048,0.7006,0.6974,0.696,0.6948,0.6961,0.6943,0.6909,0.6902,0.6896,0.6898,0.696,0.696,0.698,0.6981,0.6981]},{"header":{"parameterUnit":"m.s-1","parameterCategory":1,"la1":30.2991,"la2":30.254,"lo1":-89.0895,"lo2":-89.0444,"dy":0.0017,"dx":0.0017,"nx":28,"ny":28,"refTime":"2024-08-15T21:00:00:Z","depth":0,"parameterNumber":3,"parameterNumberName":"V-component_of_WINDS"},"data":[0,0,0,0,0,0,0,0,0,0,0,0,0,0,0,0,0,0,0,0,0,0,0,0,0,0,0,0,0,0,0,0,0,0,0,0,0,0,0,0,0,0,0,0,0,0,0,0,0,0,0,0,0,0,0,0,0,0,1.1629,1.163,0,1.1746,1.1748,1.1749,1.1787,1.1786,1.1786,1.1785,1.1901,1.1904,1.1908,0,0,0,0,0,0,0,0,0,0,0,0,0,1.1432,1.1436,1.1629,1.1631,1.1632,1.1746,1.1748,1.1749,1.1787,1.1786,1.1786,1.1785,1.19,1.1904,1.1908,0,0,0,0,0,0,0,0,0,0,0,0,0,1.153,1.1437,1.1629,1.1665,1.1669,1.1746,1.1748,1.175,1.1787,1.1786,1.1785,1.1785,1.1898,1.1903,1.1909,1.1957,0,0,1.1925,1.1927,0,0,0,0,0,0,0,0,1.1525,1.1537,1.1658,1.1662,1.1667,1.1751,1.1721,1.1819,1.1787,1.1742,1.1785,1.1784,1.1851,1.186,1.1884,1.1962,1.1967,1.1925,1.1929,1.1931,1.1932,0,0,0,0,0,0,0,1.1518,1.1533,1.1675,1.166,1.1665,1.1673,1.1686,1.174,1.1799,1.1746,1.1749,1.1763,1.1854,1.1879,1.1887,1.1969,1.1925,1.193,1.1933,1.1935,1.209,1.2091,0,0,0,0,0,0,1.1506,1.1527,1.1672,1.1679,1.1593,1.1677,1.1692,1.1725,1.1799,1.181,1.1763,1.1764,1.187,1.1881,1.1891,1.1952,1.1931,1.1936,1.1939,1.209,1.2091,1.2092,0,0,0,0,0,0,1.1501,1.1518,1.1667,1.1604,1.1623,1.1681,1.1718,1.1728,1.1753,1.1812,1.1822,1.1778,1.187,1.1884,1.194,1.1956,1.1938,1.1943,1.2088,1.209,1.2091,1.2073,0,0,0,0,0,0,1.1496,1.1517,1.1537,1.1604,1.1627,1.1716,1.1719,1.1731,1.1763,1.1765,1.1829,1.1839,1.187,1.1932,1.1945,1.1963,1.1947,1.2087,1.2089,1.2091,1.2073,1.2074,1.2075,0,0,0,0,0,1.1488,1.1527,1.1538,1.1555,1.1654,1.1717,1.1729,1.1766,1.1764,1.1784,1.1821,1.1837,1.1952,1.1937,1.1953,1.1972,1.2086,1.2089,1.2091,1.2072,1.2074,1.2075,0,0,0,0,0,0,1.1459,1.1536,1.1549,1.1611,1.1657,1.1723,1.1749,1.1767,1.1814,1.1813,1.1856,1.187,1.1923,1.1953,1.1935,1.2022,1.202,1.2025,1.2,1.2002,1.2003,1.1995,1.1952,0,0,0,0,0,1.146,1.1506,1.157,1.1618,1.1641,1.1691,1.172,1.1744,1.1793,1.1812,1.1854,1.19,1.1946,1.1976,1.2022,1.2077,1.209,1.2098,1.2099,1.2099,1.2103,1.2133,1.2137,1.2099,1.2098,1.2098,0,0,1.1461,1.1509,1.1536,1.1613,1.1652,1.1697,1.1707,1.1755,1.1788,1.1819,1.1876,1.1907,1.1961,1.2016,1.2043,1.2043,1.2117,1.2102,1.2102,1.2106,1.2135,1.2139,1.2142,1.21,1.21,1.2099,0,0,1.1488,1.153,1.1573,1.1612,1.1671,1.1703,1.1714,1.1777,1.18,1.1857,1.1881,1.192,1.1999,1.2036,1.2065,1.2103,1.2118,1.2117,1.2122,1.2151,1.2154,1.2157,1.2169,1.2173,1.2121,1.212,1.212,0,1.1482,1.1554,1.1593,1.164,1.1672,1.1703,1.1747,1.1782,1.1851,1.1872,1.1872,1.1972,1.201,1.2074,1.2083,1.2106,1.2117,1.211,1.215,1.2154,1.2157,1.2169,1.2174,1.212,1.212,1.212,1.212,0,1.1543,1.1592,1.162,1.1688,1.1723,1.1768,1.1812,1.1843,1.1864,1.1896,1.1952,1.1999,1.2055,1.2071,1.2092,1.2138,1.2136,1.2143,1.2141,1.2159,1.2171,1.2177,1.2119,1.2119,1.2119,1.212,0,0,1.1555,1.1644,1.1654,1.1684,1.175,1.1788,1.1832,1.1888,1.1913,1.1959,1.1997,1.2063,1.2069,1.2102,1.2126,1.2151,1.2177,1.2154,1.2156,1.2156,1.2228,1.2222,1.2228,1.2187,1.2188,1.2189,1.2223,0,1.159,1.1674,1.171,1.1776,1.182,1.1849,1.1888,1.1931,1.1962,1.2002,1.2036,1.2081,1.2087,1.2106,1.2132,1.2168,1.2191,1.2166,1.2221,1.2222,1.2206,1.2234,1.2229,1.2259,1.2228,1.2229,1.223,0,1.1642,1.1689,1.176,1.182,1.184,1.1874,1.1927,1.1966,1.2015,1.2035,1.2071,1.2094,1.214,1.2135,1.2198,1.218,1.2204,1.2225,1.2227,1.2233,1.2227,1.224,1.227,1.2274,1.2238,1.2237,1.2237,0,1.1642,1.1724,1.1777,1.1802,1.1873,1.1896,1.1927,1.1975,1.2006,1.2051,1.2071,1.212,1.2147,1.2184,1.2219,1.2212,1.2277,1.2276,1.2294,1.2293,1.2307,1.2305,1.234,1.2323,1.2323,1.2323,1.2323,0,1.1677,1.1719,1.1778,1.181,1.1857,1.1897,1.1942,1.1974,1.2017,1.2054,1.2082,1.2116,1.216,1.2199,1.2227,1.2274,1.2286,1.2302,1.2309,1.23,1.2297,1.2316,1.2314,1.2324,1.2324,1.2323,1.2323,0,1.1686,1.1727,1.1787,1.1849,1.1865,1.1897,1.1949,1.1981,1.2012,1.2059,1.2072,1.2121,1.2169,1.2207,1.2269,1.2287,1.2336,1.2344,1.232,1.2323,1.2339,1.2336,1.2386,1.2394,1.2372,1.2372,1.2372,0,1.1705,1.1738,1.1804,1.1832,1.1862,1.1906,1.1937,1.1977,1.2008,1.2065,1.2089,1.2139,1.2181,1.2255,1.2294,1.2341,1.235,1.2364,1.2357,1.2346,1.2349,1.2347,1.235,1.2365,1.2365,1.2365,1.2365,0,1.1735,1.1753,1.1798,1.185,1.1886,1.1928,1.1971,1.1992,1.2039,1.2072,1.2121,1.2154,1.2217,1.2265,1.2316,1.2345,1.2362,1.2367,1.2373,1.2364,1.2348,1.2356,1.2321,1.2365,1.2365,1.2365,1.2365,1.2365,1.1749,1.1779,1.183,1.1878,1.1915,1.1953,1.1986,1.2021,1.2064,1.2119,1.2139,1.2189,1.2235,1.2306,1.2335,1.2373,1.2375,1.2384,1.2387,1.2388,1.2387,1.2342,1.2382,1.2382,1.2382,1.2382,1.2383,0,1.1779,1.1813,1.1857,1.1916,1.1954,1.1968,1.2015,1.2045,1.2089,1.2132,1.2172,1.2228,1.2274,1.2317,1.2365,1.2388,1.2397,1.2399,1.2397,1.2403,1.2383,1.2372,1.2391,1.2391,1.2391,1.2391,1.2391,1.2391,1.1799,1.1851,1.1875,1.1944,1.1977,1.2027,1.2053,1.2088,1.2122,1.2183,1.2222,1.2251,1.2292,1.2344,1.2386,1.2397,1.2413,1.2413,1.2426,1.2406,1.2405,1.2404,1.2394,1.2416,1.2416,1.2443,1.2444,1.2444]}]]